+ View the NASA Portal
+ Center for Near-Earth Object Studies
IMPORTANT:
The SSD Announcement email list is now available. Major changes are coming in the near future, including possible hostname and/or URL changes. To be notified of such changes, subscribe to this email list.
Please visit
this page
for more details.
Don't show this message again
JPL Small-Body Database Browser
Search:
[
help
]
441047 (2007 HH64)
Classification:
Main-belt Asteroid
SPK-ID:
2441047
[
Ephemeris
|
Orbit Diagram
|
Orbital Elements
|
Mission Design
|
Physical Parameters
|
Discovery Circumstances
]
[ show orbit diagram ]
Orbital Elements at Epoch 2458600.5 (2019-Apr-27.0) TDB
Reference:
JPL 18
(heliocentric ecliptic J2000)
Element
Value
Uncertainty (1-sigma)
Units
e
.149337497026342
5.1516e-08
a
2.395941338883263
2.3388e-08
au
q
2.038137456312494
1.2235e-07
au
i
3.226551693619896
6.3004e-06
deg
node
81.81427704034775
0.00020291
deg
peri
162.7803021068381
0.00020829
deg
M
64.07351437090786
4.8285e-05
deg
t
p
2458359.404700891618
(2018-Aug-28.90470089)
0.00018173
TDB
period
1354.605074049535
3.71
1.9834e-05
5.43e-08
d
yr
n
.2657601148088092
3.8913e-09
deg/d
Q
2.753745221454032
2.688e-08
au
Orbit Determination Parameters
# obs. used (total)
96
data-arc span
5554 days (15.21 yr)
first obs. used
2003-03-23
last obs. used
2018-06-06
planetary ephem.
DE431
SB-pert. ephem.
SB431-N16
condition code
0
norm. resid. RMS
.55493
source
ORB
producer
Otto Matic
solution date
2019-Jul-14 09:15:49
Additional Information
Earth MOID
= 1.02493 au
Jupiter MOID
= 2.26276 au
T_jup
= 3.512
[ hide covariance matrix ]
Orbital Elements at Epoch 2457096.5 (2015-Mar-15.0) TDB
Reference:
JPL 18
(heliocentric ecliptic J2000)
Element
Value
Uncertainty (1-sigma)
Units
e
.148845452211762
5.1328e-08
q
2.039720962318618
1.2183e-07
au
t
p
2457005.143121699820
(2014-Dec-13.64312170)
0.00018457
TDB
node
81.82844906467534
0.00020298
deg
peri
162.9929214751617
0.00020842
deg
i
3.226114152782747
6.2969e-06
deg
Orbit Determination Parameters
# obs. used (total)
96
data-arc span
5554 days (15.21 yr)
first obs. used
2003-03-23
last obs. used
2018-06-06
planetary ephem.
DE431
SB-pert. ephem.
SB431-N16
condition code
0
norm. resid. RMS
.55493
source
ORB
producer
Otto Matic
solution date
2019-Jul-14 09:15:49
Additional Information
Jupiter MOID
= 2.26276 au
T_jup
= 3.512
Orbit Covariance (6×6)
e
q
tp
node
peri
i
e
2.634532990297444E-15
-6.170528352076455E-15
-2.887111462496008E-12
-1.373805155754048E-13
-7.602195221973472E-13
-2.268947886155314E-15
q
-6.170528352076455E-15
1.484228166755828E-14
6.398220004485051E-12
3.106646574507261E-13
1.690523606899777E-12
5.50686899282848E-15
tp
-2.887111462496008E-12
6.398220004485051E-12
3.406648108083544E-8
1.007682477237663E-9
8.986208710966599E-9
4.801393305822528E-12
node
-1.373805155754048E-13
3.106646574507261E-13
1.007682477237663E-9
4.11997967233374E-8
-4.083891723261617E-8
4.830057348198391E-10
peri
-7.602195221973472E-13
1.690523606899777E-12
8.986208710966599E-9
-4.083891723261617E-8
4.343801420535557E-8
-4.807555730488803E-10
i
-2.268947886155314E-15
5.50686899282848E-15
4.801393305822528E-12
4.830057348198391E-10
-4.807555730488803E-10
3.965060118216027E-11
[
Ephemeris
|
Orbit Diagram
|
Orbital Elements
|
Mission Design
|
Physical Parameters
|
Discovery Circumstances
]
Physical Parameter Table
Parameter
Symbol
Value
Units
Sigma
Reference
Notes
absolute magnitude
H
17.5
n/a
MPO456090
441047 (2007 HH64)
Discovered 2007-Apr-22 by Mt. Lemmon Survey at Mount Lemmon
Reference:
Last Updated:
2015-09-02
Alternate Designations
2007 HH64
= 2014 CR3
[
Ephemeris
|
Orbit Diagram
|
Orbital Elements
|
Mission Design
|
Physical Parameters
|
Discovery Circumstances
]
2019-Dec-14 11:10 UT
(server date/time)
Site Manager:
Ryan S. Park
Webmaster
:
Alan B. Chamberlin